EW9530 Weather Reports


Display with metric or nautical units.
time (UTC)temp
F
wind
direction
speed
MPH
gust
MPH
rain 1hr
in
rain 24hr
in
rain mn
in
humidity
%
barometer
mb
20260507023159 47 32 0.0 2.0 0.00 0.00 0.00 91 1015.4
20260507021655 48 32 0.0 3.0 0.00 0.00 0.00 91 1015.3
20260507020152 48 32 0.0 0.0 0.00 0.00 0.00 91 1015.4
20260507014654 48 32 0.0 0.0 0.00 0.00 0.00 90 1015.6
20260507013156 49 32 0.0 0.0 0.00 0.00 0.00 90 1015.6
20260507011516 49 32 0.0 0.0 0.00 0.00 0.00 90 1015.5
20260507010148 49 32 0.0 0.0 0.00 0.00 0.00 89 1015.5
20260507004652 50 40 0.0 3.0 0.00 0.00 0.00 89 1015.6
20260507003137 50 31 0.0 3.0 0.00 0.00 0.00 88 1015.6
20260507001651 51 36 1.0 4.0 0.00 0.00 0.00 88 1015.7
20260506234651 52 43 1.0 5.0 0.00 0.00 0.00 86 1015.7
20260506233156 52 24 1.0 4.0 0.00 0.00 0.00 86 1015.7
20260506231651 52 28 2.0 6.0 0.00 0.00 0.00 85 1015.6
20260506230148 53 49 0.0 4.0 0.00 0.00 0.00 84 1015.5
20260506224650 54 55 2.0 4.0 0.00 0.00 0.00 81 1015.5
20260506223157 56 153 0.0 0.0 0.00 0.00 0.00 79 1015.4
20260506221650 57 153 0.0 0.0 0.00 0.00 0.00 78 1015.3
20260506220003 57 153 0.0 0.0 0.00 0.00 0.00 78 1015.2
20260506214651 57 153 0.0 2.0 0.00 0.00 0.00 77 1015.2
20260506213138 58 137 0.0 5.0 0.00 0.00 0.00 76 1015.1
20260506211649 58 173 0.0 4.0 0.00 0.00 0.00 74 1015.0
20260506204650 58 198 2.0 5.0 0.00 0.00 0.00 72 1014.7
20260506203155 59 204 1.0 6.0 0.00 0.00 0.00 69 1014.5
20260506201650 59 145 1.0 6.0 0.00 0.00 0.00 67 1014.3
20260506194650 60 197 2.0 8.0 0.00 0.00 0.00 63 1013.9
20260506193137 61 117 3.0 7.0 0.00 0.00 0.00 64 1013.6
20260506191651 62 162 3.0 7.0 0.00 0.00 0.00 63 1013.3
20260506184652 63 121 1.0 6.0 0.00 0.00 0.00 62 1012.9
20260506183155 64 157 3.0 8.0 0.00 0.00 0.00 60 1012.7
20260506181654 65 211 2.0 9.0 0.00 0.00 0.00 58 1012.4
20260506174650 67 141 3.0 11.0 0.00 0.00 0.00 56 1012.2
20260506173155 68 129 4.0 12.0 0.00 0.00 0.00 55 1011.9
20260506171650 69 169 3.0 9.0 0.00 0.00 0.00 52 1011.8
20260506164652 71 143 1.0 10.0 0.00 0.02 0.00 43 1011.7
20260506163157 71 267 1.0 11.0 0.00 0.02 0.00 39 1011.6
20260506161649 70 167 3.0 12.0 0.00 0.02 0.00 40 1011.5
20260506154644 71 290 2.0 15.0 0.00 0.13 0.00 41 1011.5
20260506153135 71 103 0.0 16.0 0.00 0.13 0.00 40 1011.5
20260506151652 70 219 5.0 13.0 0.00 0.13 0.00 41 1011.7
20260506144651 70 245 6.0 12.0 0.00 0.27 0.00 40 1012.0
20260506143137 70 273 3.0 14.0 0.00 0.27 0.00 41 1012.1
20260506141650 70 261 3.0 13.0 0.00 0.27 0.00 41 1012.3
20260506140147 70 247 9.0 14.0 0.00 0.27 0.00 42 1012.4
20260506134650 69 215 6.0 14.0 0.00 0.27 0.00 40 1012.5
20260506133138 70 278 8.0 14.0 0.00 0.27 0.00 41 1012.6
20260506131651 69 304 2.0 9.0 0.00 0.27 0.00 43 1012.7
20260506124650 68 151 0.0 15.0 0.00 0.31 0.00 44 1012.8
20260506123139 68 212 0.0 13.0 0.00 0.31 0.00 45 1012.9
20260506121652 68 225 4.0 10.0 0.00 0.31 0.00 44 1013.0
20260506120149 67 281 4.0 13.0 0.00 0.31 0.00 45 1013.1
20260506114650 67 248 6.0 16.0 0.00 0.32 0.00 48 1013.1
20260506113136 66 189 2.0 14.0 0.00 0.32 0.00 48 1013.3
20260506111650 66 193 1.0 4.0 0.00 0.32 0.00 58 1013.5
20260506110148 65 132 0.0 3.0 0.00 0.32 0.00 59 1013.6
20260506104653 65 217 2.0 6.0 0.00 0.32 0.00 62 1013.6
20260506103138 63 34 3.0 8.0 0.00 0.32 0.00 63 1014.0
20260506101651 63 306 1.0 8.0 0.00 0.32 0.00 64 1014.0
20260506100152 61 97 2.0 8.0 0.00 0.32 0.00 66 1014.2
20260506094654 61 45 2.0 6.0 0.00 0.32 0.00 67 1014.4
20260506093155 60 68 2.0 7.0 0.00 0.32 0.00 68 1014.5
20260506091652 59 40 1.0 8.0 0.00 0.32 0.00 71 1014.6
20260506090149 59 63 0.0 8.0 0.00 0.32 0.00 73 1014.5
20260506084650 57 21 3.0 9.0 0.00 0.32 0.00 74 1014.6
20260506083156 56 91 4.0 9.0 0.00 0.32 0.00 76 1014.5
20260506081652 56 67 5.0 11.0 0.00 0.32 0.00 78 1014.5
20260506073156 51 332 1.0 6.0 0.00 0.32 0.00 96 1014.5
20260506071650 50 48 2.0 6.0 0.00 0.32 0.00 96 1014.5
20260506070149 49 39 1.0 3.0 0.00 0.32 0.00 96 1014.5
20260506061653 46 21 2.0 6.0 0.00 0.32 0.00 96 1014.5
20260506050149 45 5 2.0 5.0 0.00 0.32 0.00 95 1013.9
20260506044650 46 312 0.0 0.0 0.00 0.32 0.00 95 1013.7
20260506043154 46 10 0.0 0.0 0.00 0.32 0.00 95 1013.6
20260506041652 46 10 0.0 0.0 0.00 0.32 0.00 95 1013.6
20260506040149 46 10 0.0 3.0 0.00 0.32 0.00 95 1013.4
20260506034651 46 42 2.0 6.0 0.00 0.32 0.00 95 1013.3
20260506033155 47 26 3.0 8.0 0.00 0.32 0.00 95 1013.2
20260506031650 47 15 2.0 6.0 0.00 0.32 0.00 95 1013.2
20260506024652 48 9 3.0 6.0 0.00 0.32 0.00 95 1013.1